[[{"header":{"parameterUnit":"m.s-1","parameterCategory":1,"la1":30.2991,"la2":30.254,"lo1":-89.0895,"lo2":-89.0444,"dy":0.0017,"dx":0.0017,"nx":28,"ny":28,"refTime":"2025-07-22T09:00:00:Z","depth":0,"parameterNumber":2,"parameterNumberName":"U-component_of_WINDS"},"data":[0,0,0,0,0,0,0,0,0,0,0,0,0,0,0,0,0,0,0,0,0,0,0,0,0,0,0,0,0,0,0,0,0,0,0,0,0,0,0,0,0,0,0,0,0,0,0,0,0,0,0,0,0,0,0,0,0,0,2.5851,2.5852,0,2.5971,2.5972,2.5974,2.5945,2.5943,2.5941,2.5938,2.6068,2.6074,2.6079,0,0,0,0,0,0,0,0,0,0,0,0,0,2.5605,2.5609,2.5851,2.5852,2.5854,2.5971,2.5972,2.5974,2.5946,2.5943,2.594,2.5937,2.6067,2.6073,2.608,0,0,0,0,0,0,0,0,0,0,0,0,0,2.5717,2.5611,2.5851,2.5854,2.5855,2.597,2.5972,2.5975,2.5946,2.5943,2.5939,2.5936,2.6064,2.6073,2.6081,2.6203,0,0,2.6107,2.611,0,0,0,0,0,0,0,0,2.5711,2.5726,2.5852,2.5854,2.5855,2.5939,2.5933,2.6051,2.5947,2.5912,2.5938,2.5934,2.6029,2.604,2.607,2.6209,2.6214,2.6107,2.6113,2.6116,2.6119,0,0,0,0,0,0,0,2.5703,2.5721,2.5899,2.5854,2.5856,2.5852,2.5864,2.5956,2.5989,2.5915,2.5913,2.5927,2.6029,2.6062,2.6073,2.6216,2.6107,2.6115,2.612,2.6123,2.6464,2.6468,0,0,0,0,0,0,2.5693,2.5715,2.5895,2.5902,2.5773,2.5859,2.5872,2.5916,2.5987,2.5995,2.593,2.5925,2.605,2.6063,2.6078,2.6227,2.6116,2.6124,2.6129,2.646,2.6465,2.6469,0,0,0,0,0,0,2.5687,2.5709,2.589,2.5808,2.5831,2.5867,2.5916,2.592,2.5953,2.5999,2.6005,2.5957,2.6047,2.6066,2.6172,2.6231,2.6128,2.6135,2.6455,2.6462,2.6467,2.6525,0,0,0,0,0,0,2.568,2.5707,2.5752,2.5809,2.5835,2.598,2.592,2.5925,2.5967,2.5962,2.6026,2.6034,2.6046,2.616,2.618,2.6241,2.6142,2.645,2.6458,2.6465,2.6518,2.6532,2.6544,0,0,0,0,0,2.5672,2.5764,2.5754,2.5776,2.5891,2.5983,2.5999,2.6009,2.5972,2.6019,2.6048,2.6032,2.6221,2.6171,2.6194,2.6258,2.6447,2.6456,2.6465,2.6512,2.653,2.6544,0,0,0,0,0,0,2.5715,2.5772,2.5761,2.5875,2.5924,2.5978,2.6037,2.6027,2.6089,2.6083,2.6095,2.611,2.6219,2.6249,2.6192,2.6381,2.6329,2.6343,2.6357,2.6374,2.6387,2.6378,2.6149,0,0,0,0,0,2.5737,2.5805,2.5852,2.5948,2.5973,2.6001,2.6042,2.6045,2.6098,2.612,2.6157,2.6211,2.6283,2.633,2.6398,2.6522,2.6537,2.6578,2.6591,2.6601,2.6614,2.6684,2.6703,2.6499,2.6499,2.6499,0,0,2.5785,2.5825,2.5867,2.5958,2.5996,2.6069,2.6019,2.6097,2.6152,2.6132,2.6234,2.6264,2.6325,2.6442,2.6495,2.647,2.6674,2.6613,2.6621,2.6628,2.6695,2.6715,2.6732,2.6505,2.6504,2.6503,0,0,2.5909,2.5945,2.6029,2.6069,2.6128,2.6146,2.6167,2.6223,2.6241,2.6344,2.6331,2.6398,2.652,2.6565,2.6604,2.6747,2.6735,2.6769,2.6839,2.6907,2.6923,2.6937,2.699,2.7009,2.6781,2.6781,2.6782,0,2.5962,2.6068,2.6075,2.6155,2.6196,2.618,2.6267,2.6306,2.6386,2.6416,2.6387,2.6541,2.6581,2.6709,2.6744,2.6775,2.6801,2.6762,2.692,2.6934,2.6948,2.6999,2.7018,2.6785,2.6785,2.6784,2.6784,0,2.6131,2.6205,2.6266,2.6342,2.639,2.6474,2.6496,2.6544,2.6545,2.6567,2.6673,2.6721,2.6799,2.683,2.6831,2.6958,2.6941,2.6916,2.6864,2.6971,2.7019,2.7038,2.6791,2.6789,2.6788,2.6787,0,0,2.6285,2.6363,2.6386,2.6421,2.6485,2.6544,2.6628,2.6703,2.6746,2.6802,2.6874,2.6979,2.6956,2.7001,2.7007,2.7067,2.718,2.7034,2.7036,2.7061,2.7326,2.7345,2.7367,2.7172,2.7175,2.7178,2.7321,0,2.6416,2.6561,2.6571,2.6704,2.6774,2.676,2.6834,2.6883,2.6907,2.6972,2.6999,2.7073,2.7036,2.7063,2.7122,2.7153,2.7233,2.7143,2.7242,2.7245,2.7228,2.7392,2.7413,2.7545,2.734,2.7343,2.7345,0,2.6588,2.6648,2.6787,2.6843,2.6873,2.6939,2.7009,2.7071,2.7128,2.7141,2.7191,2.7189,2.7279,2.7223,2.7348,2.7286,2.7327,2.7349,2.7355,2.7365,2.7302,2.7409,2.7587,2.7608,2.7374,2.7372,2.737,0,2.6689,2.6804,2.6903,2.6933,2.7001,2.7048,2.7078,2.7131,2.7176,2.7239,2.7269,2.7342,2.7383,2.744,2.746,2.7417,2.7585,2.753,2.76,2.76,2.7637,2.7635,2.7826,2.7662,2.7661,2.7661,2.766,0,2.6835,2.6921,2.6949,2.701,2.7107,2.7119,2.7216,2.7244,2.7292,2.736,2.7353,2.7418,2.7439,2.7508,2.7524,2.7626,2.7644,2.7659,2.7663,2.7661,2.7659,2.7689,2.768,2.7666,2.7665,2.7664,2.7663,0,2.6964,2.6986,2.7093,2.7148,2.7164,2.7234,2.7283,2.7343,2.7365,2.7452,2.7473,2.7509,2.7591,2.7615,2.7714,2.7725,2.7845,2.7839,2.7825,2.7826,2.7895,2.7889,2.8113,2.8144,2.7958,2.796,2.7961,0,2.7056,2.7122,2.7185,2.7229,2.7261,2.7333,2.7379,2.7394,2.7442,2.7513,2.7565,2.7645,2.7709,2.784,2.7877,2.7953,2.795,2.8024,2.7962,2.7958,2.7953,2.795,2.7957,2.8036,2.8038,2.8039,2.8041,0,2.7219,2.7226,2.7291,2.7362,2.7416,2.7472,2.7527,2.7564,2.7587,2.7643,2.7724,2.7774,2.7875,2.7955,2.8032,2.8067,2.8059,2.806,2.808,2.8079,2.8069,2.8077,2.7858,2.8055,2.8053,2.8052,2.8052,2.8051,2.7333,2.7392,2.7445,2.7519,2.7561,2.7612,2.7672,2.7702,2.7769,2.7851,2.7856,2.7946,2.8003,2.8105,2.8144,2.8216,2.8195,2.8224,2.8232,2.8239,2.8246,2.8056,2.823,2.823,2.8229,2.8229,2.8229,0,2.7496,2.753,2.7598,2.7673,2.7732,2.7717,2.7777,2.7828,2.7906,2.7959,2.8023,2.8118,2.8196,2.8239,2.8318,2.8368,2.8366,2.8388,2.8385,2.8394,2.8259,2.8234,2.8388,2.8388,2.8388,2.8388,2.8388,2.8388,2.7588,2.7687,2.7702,2.7823,2.7857,2.7943,2.7978,2.8027,2.8069,2.8175,2.824,2.8266,2.8317,2.8399,2.8471,2.8482,2.8512,2.8536,2.8545,2.8419,2.8403,2.8387,2.8364,2.8542,2.8543,2.8674,2.8675,2.8676]},{"header":{"parameterUnit":"m.s-1","parameterCategory":1,"la1":30.2991,"la2":30.254,"lo1":-89.0895,"lo2":-89.0444,"dy":0.0017,"dx":0.0017,"nx":28,"ny":28,"refTime":"2025-07-22T09:00:00:Z","depth":0,"parameterNumber":3,"parameterNumberName":"V-component_of_WINDS"},"data":[0,0,0,0,0,0,0,0,0,0,0,0,0,0,0,0,0,0,0,0,0,0,0,0,0,0,0,0,0,0,0,0,0,0,0,0,0,0,0,0,0,0,0,0,0,0,0,0,0,0,0,0,0,0,0,0,0,0,2.4611,2.4613,0,2.4806,2.4808,2.481,2.4791,2.4788,2.4785,2.4782,2.498,2.4987,2.4995,0,0,0,0,0,0,0,0,0,0,0,0,0,2.4218,2.4226,2.4611,2.4614,2.4616,2.4805,2.4808,2.4811,2.4791,2.4787,2.4784,2.478,2.4977,2.4986,2.4996,0,0,0,0,0,0,0,0,0,0,0,0,0,2.4398,2.4228,2.4611,2.4629,2.4633,2.4805,2.4808,2.4811,2.4792,2.4787,2.4783,2.4779,2.4974,2.4985,2.4997,2.5163,0,0,2.5035,2.504,0,0,0,0,0,0,0,0,2.4388,2.4413,2.4624,2.4628,2.4633,2.4769,2.4742,2.4929,2.4793,2.4732,2.4782,2.4776,2.4913,2.493,2.4976,2.5172,2.5181,2.5036,2.5043,2.5048,2.5052,0,0,0,0,0,0,0,2.4376,2.4404,2.4688,2.4627,2.4632,2.4626,2.4647,2.4777,2.4845,2.4737,2.4736,2.4759,2.4915,2.4965,2.4981,2.5184,2.5035,2.5046,2.5054,2.5058,2.5519,2.5523,0,0,0,0,0,0,2.4359,2.4394,2.4682,2.4694,2.4497,2.4637,2.466,2.473,2.4844,2.4857,2.4763,2.4757,2.4946,2.4967,2.4988,2.5185,2.5048,2.5059,2.5066,2.5514,2.552,2.5525,0,0,0,0,0,0,2.4351,2.4385,2.4674,2.4544,2.458,2.4648,2.4727,2.4736,2.4786,2.4864,2.4875,2.4802,2.4943,2.4971,2.5118,2.5192,2.5065,2.5076,2.5508,2.5516,2.5522,2.5583,0,0,0,0,0,0,2.434,2.4382,2.4448,2.4546,2.4587,2.4803,2.4732,2.4743,2.4807,2.4802,2.4903,2.4916,2.4942,2.51,2.513,2.5206,2.5085,2.5502,2.5511,2.552,2.5575,2.5592,2.5606,0,0,0,0,0,2.4326,2.4458,2.4451,2.4486,2.467,2.4808,2.4831,2.4859,2.4814,2.4878,2.4927,2.4912,2.5179,2.5116,2.5149,2.523,2.5497,2.5509,2.5519,2.5568,2.5589,2.5606,0,0,0,0,0,0,2.4369,2.4472,2.4465,2.4633,2.4712,2.4804,2.4887,2.4881,2.4974,2.4966,2.4996,2.5018,2.5166,2.5213,2.5141,2.5393,2.5332,2.535,2.5357,2.5377,2.5393,2.5377,2.5096,0,0,0,0,0,2.4397,2.4501,2.4585,2.4726,2.4765,2.4819,2.488,2.4894,2.4977,2.501,2.507,2.5149,2.525,2.5317,2.5414,2.5582,2.5601,2.5653,2.5669,2.5681,2.5696,2.5783,2.5805,2.5562,2.5562,2.5561,0,0,2.4458,2.4527,2.4592,2.4736,2.4798,2.4903,2.4848,2.4962,2.5039,2.5027,2.5169,2.5216,2.5306,2.5463,2.5535,2.5506,2.5767,2.5695,2.5705,2.5713,2.5796,2.5819,2.584,2.5569,2.5568,2.5567,0,0,2.4622,2.4687,2.4808,2.4871,2.4965,2.5,2.5028,2.5121,2.5151,2.5294,2.5285,2.5376,2.5552,2.5615,2.567,2.5851,2.5839,2.5882,2.5964,2.6047,2.6066,2.6083,2.6144,2.6166,2.5897,2.5897,2.5897,0,2.4686,2.4845,2.4871,2.4985,2.5047,2.504,2.516,2.522,2.5342,2.5383,2.535,2.5565,2.5626,2.5794,2.5838,2.5884,2.5915,2.5871,2.6062,2.6079,2.6095,2.6153,2.6177,2.5902,2.5901,2.5901,2.59,0,2.4916,2.5025,2.5112,2.5228,2.5299,2.5417,2.5458,2.5527,2.5533,2.557,2.5712,2.5785,2.5894,2.5935,2.5944,2.6104,2.6082,2.6055,2.5994,2.6122,2.6177,2.62,2.5908,2.5906,2.5905,2.5904,0,0,2.5115,2.524,2.5271,2.5321,2.5423,2.5507,2.5621,2.5728,2.5784,2.5867,2.5961,2.6107,2.608,2.6143,2.6158,2.6232,2.6365,2.6194,2.6197,2.622,2.6539,2.6557,2.6583,2.6358,2.6362,2.6366,2.653,0,2.5286,2.549,2.5514,2.5695,2.5793,2.5785,2.5884,2.5955,2.5992,2.6079,2.6119,2.622,2.6179,2.6216,2.6289,2.6333,2.6429,2.6322,2.6443,2.6447,2.6418,2.6613,2.6634,2.6786,2.6552,2.6556,2.6559,0,2.5515,2.5601,2.5791,2.5873,2.5916,2.6005,2.6101,2.6186,2.6265,2.6285,2.6352,2.6356,2.6471,2.6405,2.6561,2.6488,2.6538,2.6567,2.6573,2.6584,2.6509,2.6626,2.6836,2.6858,2.6594,2.6591,2.6589,0,2.5635,2.58,2.5933,2.5977,2.6078,2.6139,2.6184,2.6259,2.6319,2.6403,2.6441,2.6538,2.659,2.6663,2.6691,2.6642,2.6844,2.6782,2.6862,2.6861,2.6904,2.6901,2.7122,2.6941,2.694,2.694,2.694,0,2.5823,2.5938,2.5988,2.607,2.6197,2.6223,2.6348,2.639,2.6455,2.6542,2.6541,2.6623,2.6657,2.6743,2.6766,2.6888,2.6913,2.693,2.6935,2.6929,2.6927,2.6962,2.6951,2.6946,2.6945,2.6944,2.6943,0,2.598,2.6019,2.6163,2.6245,2.6268,2.6358,2.6427,2.6504,2.6537,2.6648,2.6675,2.6727,2.6828,2.6863,2.6987,2.7001,2.7143,2.714,2.7116,2.7116,2.7193,2.7184,2.7443,2.7476,2.7275,2.7277,2.7279,0,2.6097,2.6185,2.6275,2.6333,2.6379,2.6474,2.6535,2.6562,2.6625,2.6718,2.6783,2.6882,2.6964,2.7124,2.7172,2.7264,2.7261,2.7345,2.7275,2.7265,2.7258,2.7251,2.7258,2.7358,2.736,2.7362,2.7363,0,2.6297,2.6311,2.6399,2.6492,2.6564,2.6639,2.6712,2.6759,2.6796,2.6866,2.6969,2.7032,2.7155,2.7252,2.7346,2.7389,2.7381,2.7385,2.7407,2.7402,2.7383,2.739,2.7149,2.7379,2.7377,2.7376,2.7375,2.7375,2.6436,2.6511,2.6585,2.6682,2.6738,2.6805,2.688,2.6921,2.7007,2.711,2.712,2.7229,2.73,2.7424,2.7471,2.7555,2.7531,2.7565,2.7573,2.7581,2.7584,2.7371,2.7572,2.7572,2.7572,2.7571,2.7571,0,2.6633,2.6679,2.6768,2.6868,2.6942,2.6928,2.7006,2.7069,2.7165,2.7232,2.7311,2.7425,2.7519,2.7572,2.7664,2.772,2.7719,2.7743,2.7738,2.7747,2.7602,2.7572,2.7743,2.7743,2.7743,2.7743,2.7743,2.7743,2.6745,2.687,2.6892,2.7044,2.7089,2.7195,2.724,2.73,2.7353,2.7481,2.7558,2.7592,2.7652,2.7748,2.7831,2.7844,2.7876,2.7903,2.7913,2.7776,2.7758,2.7741,2.7713,2.7911,2.7911,2.8051,2.8052,2.8053]}]]